Location: Gazon
(48.1318°N, 1.2708°W)
Time: 22:23:43
(UTC+00:00)

Cosmos 2082 Rocket - Pass Details

Date: 18 September 2020
Orbit: 834 x 853 km, 71.0° (Epoch: 24 October)

Event Time Altitude Azimuth Distance (km) Brightness Sun altitude
Rises 22:22:35 0° 330° (NNW) 3,393 6.3 -36.2°
Reaches altitude 10° 22:25:03 10° 327° (NNW) 2,455 5.4 -36.4°
Enters shadow 22:28:05 33° 317° (NW) 1,385 3.7 -36.7°
